Location: Newark
(41.7772°N, 74.7403°W)
Time: 05:19:30
(UTC+00:00)

Vanguard 1 Rocket - All Passes

Search period start: 28 May 2020 00:00
Search period end: 07 June 2020 00:00
Orbit: 653 x 4224 km, 34.3° (Epoch: 26 May)

Date Brightness Start Highest point End Pass type
(mag) Time Alt. Az. Time Alt. Az. Time Alt. Az.
28 May - 03:15:28 10° S 03:30:41 24° SSE 03:41:11 10° ESE visible
28 May - 05:42:07 10° SW 05:58:57 44° SSE 06:08:03 10° E visible
28 May - 08:13:10 10° WSW 08:25:34 54° S 08:32:05 10° ESE visible
28 May - 10:43:33 10° W 10:50:17 30° SSW 10:54:45 10° SE daylight
29 May - 02:05:49 10° S 02:17:33 16° SE 02:26:55 10° ESE visible
29 May - 04:28:13 10° SW 04:46:23 38° SSE 04:57:02 10° E visible
29 May - 06:58:35 10° WSW 07:13:58 55° S 07:21:51 10° E visible
29 May - 09:29:56 10° W 09:39:38 44° SSW 09:45:10 10° SE daylight
29 May - 12:00:58 10° WSW 12:03:17 12° SW 12:05:19 10° SSW daylight
30 May - 03:15:17 10° SSW 03:33:24 30° SSE 03:45:16 10° E visible
30 May - 05:43:48 10° SW 06:01:50 51° SSE 06:11:20 10° E visible
30 May - 08:15:41 10° W 08:28:32 55° S 08:35:14 10° ESE visible
30 May - 10:46:36 10° W 10:53:02 25° SSW 10:57:25 10° SSE daylight
31 May - 02:04:03 10° S 02:20:09 23° SE 02:32:11 10° E visible
31 May - 04:29:20 10° SW 04:49:10 45° SSE 05:00:26 10° E visible
31 May - 07:00:49 10° WSW 07:16:54 58° S 07:25:02 10° ESE visible
31 May - 09:32:41 10° W 09:42:29 40° SSW 09:48:07 10° SE daylight
01 Jun - 00:56:11 10° SSE 01:06:49 14° SE 01:16:02 10° ESE visible
01 Jun - 03:15:44 10° SSW 03:36:03 37° SSE 03:48:56 10° E visible
01 Jun - 05:45:40 10° WSW 06:04:41 57° S 06:14:33 10° E visible
01 Jun - 08:18:14 10° W 08:31:26 53° SSW 08:38:19 10° ESE visible
01 Jun - 10:49:49 10° W 10:55:40 21° SW 10:59:50 10° S daylight
02 Jun - 02:03:33 10° SSW 02:22:39 29° SE 02:36:26 10° E visible
02 Jun - 04:30:46 10° SW 04:51:55 51° SSE 05:03:42 10° E visible
02 Jun - 07:03:09 10° WSW 07:19:47 60° S 07:28:10 10° ESE visible
02 Jun - 09:35:28 10° W 09:45:15 36° SSW 09:50:57 10° SE daylight
03 Jun - 00:53:33 10° S 01:09:11 20° SE 01:22:06 10° E visible
03 Jun - 03:16:39 10° SW 03:38:39 44° SSE 03:52:20 10° E visible
03 Jun - 05:47:44 10° WSW 06:07:32 61° S 06:17:43 10° E visible
03 Jun - 08:20:48 10° W 08:34:16 51° SSW 08:41:20 10° SE visible
03 Jun - 10:53:21 10° W 10:58:11 16° SW 11:01:51 10° S daylight
03 Jun - 23:49:08 10° SSE 23:55:54 12° SE 00:02:18 10° ESE daylight
04 Jun - 02:03:46 10° SSW 02:25:04 36° SSE 02:40:10 10° E visible
04 Jun - 04:32:28 10° WSW 04:54:38 57° SSE 05:06:54 10° E visible
04 Jun - 07:05:33 10° W 07:22:39 60° S 07:31:16 10° ESE visible
04 Jun - 09:38:20 10° W 09:47:52 31° SW 09:53:38 10° SSE daylight
05 Jun - 00:52:38 10° S 01:11:27 26° SE 01:26:40 10° E visible
05 Jun - 03:17:55 10° SW 03:41:13 51° SSE 03:55:36 10° E visible
05 Jun - 05:49:54 10° WSW 06:10:20 64° S 06:20:50 10° ESE visible
05 Jun - 08:23:23 10° W 08:37:02 46° SSW 08:44:16 10° SE visible
05 Jun - 10:57:39 10° WSW 11:00:34 12° SW 11:03:03 10° SSW daylight
05 Jun - 23:44:25 10° SSE 23:58:02 17° SE 00:10:27 10° E daylight
06 Jun - 02:04:32 10° SSW 02:27:26 42° SSE 02:43:37 10° E visible
06 Jun - 04:34:23 10° WSW 04:57:20 62° S 05:10:02 10° E visible
06 Jun - 07:07:59 10° W 07:25:27 59° SSW 07:34:19 10° ESE visible
06 Jun - 09:41:19 10° W 09:50:22 26° SW 09:56:05 10° SSE daylight
